Location: Katherine
(14.4670°S, 132.2670°E)
Time: 08:04:44
(UTC+09:30)

ISS - Pass Details

Date: 21 May 2017
Orbit: 402 x 408 km, 51.6° (Epoch: 27 May)

Event Time Altitude Azimuth Distance (km) Brightness Sun altitude
Rises 19:12:49 0° 215° (SW) 2,341 0.3 -13.0°
Reaches altitude 10° 19:14:55 10° 212° (SSW) 1,476 -0.8 -13.5°
Maximum altitude 19:18:13 72° 127° (SE) 433 -3.9 -14.3°
Drops below altitude 10° 19:21:30 10° 42° (NE) 1,463 -1.3 -15.0°
Enters shadow 19:21:38 - 42° (NE) 1,519 -1.2 -15.1°
